Terminal Aerodrome Forecast
Issued by NWS

Home | Current Version | Previous Version | Graphics & Text | Print | Product List | Glossary On
Versions: 1 2 3 4 5 6 7 8 9 10 11 12
438
FTUS42 KMHX 231139
TAFPGV
TAF
KPGV 231139Z 2312/2412 21004KT P6SM SCT250
     FM231700 22007KT P6SM SCT050
     FM241000 00000KT 6SM BR SKC
      AMD LTD TO CLD VIS AND WIND=

USA.gov is the U.S. government's official web portal to all federal, state and local government web resources and services.